| time (UTC) | temp F | wind direction | speed MPH | gust MPH | rain 1hr in | rain 24hr in | rain mn in | humidity % | barometer mb |
| 20260507064318 | 70 | 257 | 6.0 | 10.0 | 0.00 | 0.00 | 0.00 | 47 | 1014.2 |
| 20260507063830 | 70 | 251 | 8.0 | 10.0 | 0.00 | 0.00 | 0.00 | 47 | 1014.2 |
| 20260507063321 | 70 | 260 | 7.0 | 11.0 | 0.00 | 0.00 | 0.00 | 46 | 1014.2 |
| 20260507062813 | 71 | 263 | 9.0 | 12.0 | 0.00 | 0.00 | 0.00 | 45 | 1014.3 |
| 20260507062324 | 71 | 275 | 10.0 | 16.0 | 0.00 | 0.00 | 0.00 | 45 | 1014.2 |
| 20260507061815 | 71 | 269 | 11.0 | 16.0 | 0.00 | 0.00 | 0.00 | 45 | 1014.2 |
| 20260507061324 | 71 | 294 | 9.0 | 13.0 | 0.00 | 0.00 | 0.00 | 44 | 1014.2 |
| 20260507060816 | 72 | 281 | 10.0 | 13.0 | 0.00 | 0.00 | 0.00 | 44 | 1014.3 |
| 20260507060327 | 72 | 302 | 10.0 | 17.0 | 0.00 | 0.00 | 0.00 | 44 | 1014.3 |
| 20260507055820 | 72 | 304 | 12.0 | 17.0 | 0.00 | 0.00 | 0.00 | 44 | 1014.4 |
| 20260507055313 | 72 | 297 | 11.0 | 15.0 | 0.00 | 0.00 | 0.00 | 44 | 1014.4 |
| 20260507054826 | 72 | 299 | 12.0 | 17.0 | 0.00 | 0.00 | 0.00 | 44 | 1014.4 |
| 20260507054318 | 72 | 290 | 11.0 | 17.0 | 0.00 | 0.00 | 0.00 | 44 | 1014.4 |
| 20260507053850 | 72 | 303 | 13.0 | 18.0 | 0.00 | 0.00 | 0.00 | 44 | 1014.5 |
| 20260507053319 | 72 | 311 | 13.0 | 18.0 | 0.00 | 0.00 | 0.00 | 45 | 1014.4 |
| 20260507052831 | 72 | 300 | 13.0 | 21.0 | 0.00 | 0.00 | 0.00 | 45 | 1014.4 |
| 20260507052322 | 72 | 298 | 14.0 | 21.0 | 0.00 | 0.00 | 0.00 | 45 | 1014.4 |
| 20260507051818 | 72 | 304 | 14.0 | 23.0 | 0.00 | 0.00 | 0.00 | 45 | 1014.4 |
| 20260507051328 | 73 | 287 | 15.0 | 21.0 | 0.00 | 0.00 | 0.00 | 45 | 1014.3 |
| 20260507050821 | 73 | 302 | 17.0 | 20.0 | 0.00 | 0.00 | 0.00 | 44 | 1014.3 |
| 20260507050331 | 73 | 296 | 14.0 | 20.0 | 0.00 | 0.00 | 0.00 | 44 | 1014.3 |
| 20260507045839 | 73 | 321 | 14.0 | 20.0 | 0.00 | 0.00 | 0.00 | 43 | 1014.4 |
| 20260507045349 | 73 | 297 | 14.0 | 18.0 | 0.00 | 0.00 | 0.00 | 43 | 1014.3 |
| 20260507044822 | 74 | 302 | 13.0 | 21.0 | 0.00 | 0.00 | 0.00 | 42 | 1014.4 |
| 20260507044313 | 74 | 295 | 14.0 | 20.0 | 0.00 | 0.00 | 0.00 | 42 | 1014.3 |
| 20260507043827 | 74 | 288 | 13.0 | 20.0 | 0.00 | 0.00 | 0.00 | 41 | 1014.3 |
| 20260507043318 | 74 | 277 | 15.0 | 20.0 | 0.00 | 0.00 | 0.00 | 40 | 1014.2 |
| 20260507042833 | 74 | 270 | 16.0 | 20.0 | 0.00 | 0.00 | 0.00 | 40 | 1014.2 |
| 20260507042325 | 75 | 292 | 14.0 | 20.0 | 0.00 | 0.00 | 0.00 | 39 | 1014.1 |
| 20260507041818 | 75 | 261 | 15.0 | 20.0 | 0.00 | 0.00 | 0.00 | 39 | 1014.1 |
| 20260507041329 | 75 | 257 | 14.0 | 18.0 | 0.00 | 0.00 | 0.00 | 38 | 1014.1 |
| 20260507040821 | 76 | 277 | 14.0 | 18.0 | 0.00 | 0.00 | 0.00 | 38 | 1014.0 |
| 20260507040330 | 76 | 258 | 11.0 | 15.0 | 0.00 | 0.00 | 0.00 | 36 | 1014.0 |
| 20260507035820 | 76 | 276 | 10.0 | 15.0 | 0.00 | 0.00 | 0.00 | 35 | 1014.0 |
| 20260507035331 | 76 | 275 | 12.0 | 18.0 | 0.00 | 0.00 | 0.00 | 35 | 1013.9 |
| 20260507034822 | 77 | 288 | 14.0 | 18.0 | 0.00 | 0.00 | 0.00 | 34 | 1013.9 |
| 20260507034353 | 77 | 282 | 11.0 | 15.0 | 0.00 | 0.00 | 0.00 | 33 | 1013.8 |
| 20260507033828 | 77 | 277 | 11.0 | 15.0 | 0.00 | 0.00 | 0.00 | 33 | 1013.7 |
| 20260507033319 | 77 | 277 | 9.0 | 12.0 | 0.00 | 0.00 | 0.00 | 32 | 1013.6 |
| 20260507032812 | 77 | 270 | 8.0 | 13.0 | 0.00 | 0.00 | 0.00 | 31 | 1013.6 |
| 20260507032344 | 77 | 287 | 10.0 | 13.0 | 0.00 | 0.00 | 0.00 | 31 | 1013.5 |
| 20260507031814 | 78 | 265 | 9.0 | 12.0 | 0.00 | 0.00 | 0.00 | 31 | 1013.4 |
| 20260507031325 | 78 | 261 | 6.0 | 11.0 | 0.00 | 0.00 | 0.00 | 30 | 1013.4 |
| 20260507030817 | 78 | 300 | 7.0 | 15.0 | 0.00 | 0.00 | 0.00 | 30 | 1013.3 |
| 20260507030327 | 78 | 269 | 10.0 | 15.0 | 0.00 | 0.00 | 0.00 | 30 | 1013.2 |
| 20260507025837 | 78 | 267 | 9.0 | 13.0 | 0.00 | 0.00 | 0.00 | 29 | 1013.2 |
| 20260507025347 | 79 | 273 | 8.0 | 14.0 | 0.00 | 0.00 | 0.00 | 29 | 1013.1 |
| 20260507024822 | 79 | 242 | 9.0 | 13.0 | 0.00 | 0.00 | 0.00 | 29 | 1013.0 |
| 20260507024313 | 79 | 261 | 10.0 | 13.0 | 0.00 | 0.00 | 0.00 | 29 | 1012.9 |
| 20260507023825 | 79 | 263 | 11.0 | 16.0 | 0.00 | 0.00 | 0.00 | 29 | 1012.8 |
| 20260507023335 | 80 | 260 | 13.0 | 16.0 | 0.00 | 0.00 | 0.00 | 29 | 1012.7 |
| 20260507022847 | 80 | 297 | 11.0 | 16.0 | 0.00 | 0.00 | 0.00 | 28 | 1012.7 |
| 20260507022317 | 80 | 273 | 8.0 | 13.0 | 0.00 | 0.00 | 0.00 | 28 | 1012.7 |
| 20260507021850 | 81 | 246 | 9.0 | 14.0 | 0.00 | 0.00 | 0.00 | 28 | 1012.6 |
| 20260507021321 | 81 | 263 | 11.0 | 16.0 | 0.00 | 0.00 | 0.00 | 27 | 1012.6 |
| 20260507020814 | 82 | 246 | 9.0 | 16.0 | 0.00 | 0.00 | 0.00 | 27 | 1012.5 |
| 20260507020325 | 82 | 251 | 12.0 | 16.0 | 0.00 | 0.00 | 0.00 | 27 | 1012.5 |
| 20260507015836 | 82 | 252 | 9.0 | 17.0 | 0.00 | 0.00 | 0.00 | 26 | 1012.5 |
| 20260507015329 | 83 | 196 | 11.0 | 17.0 | 0.00 | 0.00 | 0.00 | 22 | 1012.4 |
| 20260507014820 | 84 | 259 | 11.0 | 15.0 | 0.00 | 0.00 | 0.00 | 25 | 1012.4 |
| 20260507014330 | 85 | 248 | 4.0 | 9.0 | 0.00 | 0.00 | 0.00 | 22 | 1012.3 |
| 20260507013823 | 85 | 180 | 4.0 | 5.0 | 0.00 | 0.00 | 0.00 | 20 | 1012.3 |
| 20260507013313 | 85 | 180 | 3.0 | 5.0 | 0.00 | 0.00 | 0.00 | 20 | 1012.2 |
| 20260507012826 | 85 | 150 | 1.0 | 8.0 | 0.00 | 0.00 | 0.00 | 20 | 1012.1 |
| 20260507012316 | 86 | 167 | 3.0 | 8.0 | 0.00 | 0.00 | 0.00 | 20 | 1012.1 |
| 20260507011830 | 86 | 138 | 5.0 | 8.0 | 0.00 | 0.00 | 0.00 | 20 | 1012.1 |
| 20260507011322 | 86 | 145 | 1.0 | 4.0 | 0.00 | 0.00 | 0.00 | 20 | 1012.1 |
| 20260507010819 | 86 | 180 | 2.0 | 4.0 | 0.00 | 0.00 | 0.00 | 19 | 1012.0 |
| 20260507010331 | 86 | 159 | 2.0 | 6.0 | 0.00 | 0.00 | 0.00 | 20 | 1012.0 |
| 20260507005821 | 86 | 178 | 3.0 | 7.0 | 0.00 | 0.00 | 0.00 | 20 | 1012.1 |
| 20260507005332 | 86 | 160 | 3.0 | 7.0 | 0.00 | 0.00 | 0.00 | 19 | 1012.0 |
| 20260507004845 | 86 | 199 | 5.0 | 7.0 | 0.00 | 0.00 | 0.00 | 19 | 1012.0 |
| 20260507004314 | 86 | 178 | 5.0 | 8.0 | 0.00 | 0.00 | 0.00 | 19 | 1012.0 |
| 20260507003826 | 86 | 205 | 4.0 | 8.0 | 0.00 | 0.00 | 0.00 | 20 | 1012.0 |
| 20260507003318 | 86 | 194 | 2.0 | 8.0 | 0.00 | 0.00 | 0.00 | 19 | 1012.0 |
| 20260507002815 | 86 | 188 | 5.0 | 13.0 | 0.00 | 0.00 | 0.00 | 20 | 1012.0 |
| 20260507002326 | 86 | 182 | 5.0 | 13.0 | 0.00 | 0.00 | 0.00 | 20 | 1012.0 |
| 20260507001818 | 86 | 146 | 5.0 | 7.0 | 0.00 | 0.00 | 0.00 | 19 | 1011.9 |
| 20260507001329 | 86 | 172 | 5.0 | 7.0 | 0.00 | 0.00 | 0.00 | 20 | 1011.9 |
| 20260507000823 | 86 | 205 | 3.0 | 10.0 | 0.00 | 0.00 | 0.00 | 19 | 1011.9 |
| 20260507000314 | 86 | 162 | 6.0 | 10.0 | 0.00 | 0.00 | 0.00 | 19 | 1011.8 |
| 20260506235823 | 85 | 192 | 4.0 | 11.0 | 0.00 | 0.00 | 0.00 | 20 | 1011.8 |
| 20260506235353 | 86 | 99 | 7.0 | 11.0 | 0.00 | 0.00 | 0.00 | 19 | 1011.8 |
| 20260506234825 | 86 | 139 | 3.0 | 7.0 | 0.00 | 0.00 | 0.00 | 19 | 1011.8 |
| 20260506234336 | 86 | 127 | 2.0 | 9.0 | 0.00 | 0.00 | 0.00 | 19 | 1011.8 |
| 20260506233813 | 85 | 140 | 6.0 | 9.0 | 0.00 | 0.00 | 0.00 | 19 | 1011.8 |
| 20260506233345 | 85 | 65 | 3.0 | 9.0 | 0.00 | 0.00 | 0.00 | 19 | 1011.9 |
| 20260506232817 | 86 | 91 | 5.0 | 9.0 | 0.00 | 0.00 | 0.00 | 18 | 1012.0 |
| 20260506232329 | 86 | 53 | 2.0 | 9.0 | 0.00 | 0.00 | 0.00 | 18 | 1012.0 |
| 20260506231820 | 86 | 126 | 5.0 | 9.0 | 0.00 | 0.00 | 0.00 | 18 | 1012.0 |
| 20260506231331 | 86 | 126 | 3.0 | 7.0 | 0.00 | 0.00 | 0.00 | 18 | 1012.0 |
| 20260506230824 | 86 | 153 | 3.0 | 9.0 | 0.00 | 0.00 | 0.00 | 19 | 1012.1 |
| 20260506230335 | 86 | 74 | 3.0 | 9.0 | 0.00 | 0.00 | 0.00 | 18 | 1012.2 |
| 20260506225822 | 86 | 104 | 3.0 | 8.0 | 0.00 | 0.00 | 0.00 | 18 | 1012.1 |
| 20260506225331 | 86 | 192 | 2.0 | 8.0 | 0.00 | 0.00 | 0.00 | 18 | 1012.2 |
| 20260506224827 | 86 | 126 | 5.0 | 11.0 | 0.00 | 0.00 | 0.00 | 18 | 1012.3 |
| 20260506224319 | 87 | 175 | 6.0 | 11.0 | 0.00 | 0.00 | 0.00 | 19 | 1012.3 |
| 20260506223830 | 87 | 94 | 4.0 | 10.0 | 0.00 | 0.00 | 0.00 | 18 | 1012.4 |
| 20260506223321 | 87 | 136 | 3.0 | 10.0 | 0.00 | 0.00 | 0.00 | 18 | 1012.4 |
| 20260506222813 | 86 | 198 | 5.0 | 10.0 | 0.00 | 0.00 | 0.00 | 18 | 1012.5 |
| 20260506222325 | 86 | 84 | 4.0 | 9.0 | 0.00 | 0.00 | 0.00 | 19 | 1012.5 |
| 20260506221816 | 85 | 195 | 1.0 | 9.0 | 0.00 | 0.00 | 0.00 | 19 | 1012.6 |
| 20260506221326 | 85 | 190 | 2.0 | 9.0 | 0.00 | 0.00 | 0.00 | 19 | 1012.7 |
| 20260506220819 | 85 | 173 | 6.0 | 10.0 | 0.00 | 0.00 | 0.00 | 19 | 1012.8 |
| 20260506220315 | 85 | 179 | 7.0 | 10.0 | 0.00 | 0.00 | 0.00 | 20 | 1012.8 |
| 20260506215826 | 85 | 184 | 6.0 | 21.0 | 0.00 | 0.00 | 0.00 | 20 | 1013.0 |
| 20260506215317 | 85 | 136 | 6.0 | 21.0 | 0.00 | 0.00 | 0.00 | 19 | 1012.9 |
| 20260506214829 | 85 | 179 | 6.0 | 13.0 | 0.00 | 0.00 | 0.00 | 20 | 1013.0 |
| 20260506214319 | 84 | 183 | 7.0 | 13.0 | 0.00 | 0.00 | 0.00 | 20 | 1013.2 |
| 20260506213832 | 84 | 148 | 9.0 | 15.0 | 0.00 | 0.00 | 0.00 | 20 | 1013.2 |
| 20260506213323 | 84 | 243 | 4.0 | 9.0 | 0.00 | 0.00 | 0.00 | 20 | 1013.3 |
| 20260506212816 | 85 | 254 | 6.0 | 9.0 | 0.00 | 0.00 | 0.00 | 19 | 1013.4 |
| 20260506212330 | 85 | 154 | 4.0 | 9.0 | 0.00 | 0.00 | 0.00 | 20 | 1013.5 |
| 20260506211823 | 84 | 172 | 6.0 | 10.0 | 0.00 | 0.00 | 0.00 | 20 | 1013.4 |
| 20260506211314 | 84 | 200 | 3.0 | 9.0 | 0.00 | 0.00 | 0.00 | 20 | 1013.5 |
| 20260506210846 | 84 | 179 | 5.0 | 9.0 | 0.00 | 0.00 | 0.00 | 21 | 1013.6 |
| 20260506210315 | 83 | 227 | 7.0 | 11.0 | 0.00 | 0.00 | 0.00 | 20 | 1013.6 |
| 20260506205825 | 83 | 201 | 7.0 | 11.0 | 0.00 | 0.00 | 0.00 | 21 | 1013.7 |
| 20260506205316 | 84 | 117 | 4.0 | 11.0 | 0.00 | 0.00 | 0.00 | 20 | 1013.7 |
| 20260506204828 | 83 | 132 | 6.0 | 11.0 | 0.00 | 0.00 | 0.00 | 21 | 1013.8 |
| 20260506204319 | 83 | 145 | 4.0 | 9.0 | 0.00 | 0.00 | 0.00 | 21 | 1013.9 |
| 20260506203836 | 83 | 252 | 2.0 | 7.0 | 0.00 | 0.00 | 0.00 | 21 | 1014.0 |
| 20260506203326 | 82 | 215 | 5.0 | 9.0 | 0.00 | 0.00 | 0.00 | 21 | 1014.1 |
| 20260506202819 | 82 | 92 | 3.0 | 11.0 | 0.00 | 0.00 | 0.00 | 21 | 1014.1 |
| 20260506202328 | 82 | 178 | 9.0 | 12.0 | 0.00 | 0.00 | 0.00 | 22 | 1014.2 |
| 20260506201819 | 81 | 165 | 4.0 | 13.0 | 0.00 | 0.00 | 0.00 | 22 | 1014.2 |
| 20260506201330 | 81 | 260 | 9.0 | 13.0 | 0.00 | 0.00 | 0.00 | 22 | 1014.2 |
| 20260506200822 | 81 | 160 | 1.0 | 6.0 | 0.00 | 0.00 | 0.00 | 23 | 1014.3 |
| 20260506200313 | 80 | 32 | 3.0 | 6.0 | 0.00 | 0.00 | 0.00 | 23 | 1014.4 |
| 20260506195822 | 80 | 99 | 3.0 | 10.0 | 0.00 | 0.00 | 0.00 | 23 | 1014.5 |
| 20260506195317 | 80 | 20 | 7.0 | 10.0 | 0.00 | 0.00 | 0.00 | 23 | 1014.7 |
| 20260506194850 | 81 | 300 | 2.0 | 11.0 | 0.00 | 0.00 | 0.00 | 23 | 1014.7 |
| 20260506194321 | 81 | 192 | 6.0 | 11.0 | 0.00 | 0.00 | 0.00 | 24 | 1014.7 |
| 20260506193814 | 80 | 167 | 3.0 | 10.0 | 0.00 | 0.00 | 0.00 | 24 | 1014.8 |
| 20260506193325 | 80 | 273 | 4.0 | 10.0 | 0.00 | 0.00 | 0.00 | 24 | 1014.8 |
| 20260506192818 | 79 | 250 | 3.0 | 8.0 | 0.00 | 0.00 | 0.00 | 24 | 1014.9 |
| 20260506192349 | 79 | 228 | 3.0 | 8.0 | 0.00 | 0.00 | 0.00 | 24 | 1014.9 |
| 20260506191820 | 79 | 191 | 5.0 | 10.0 | 0.00 | 0.00 | 0.00 | 24 | 1015.0 |
| 20260506191331 | 79 | 212 | 5.0 | 10.0 | 0.00 | 0.00 | 0.00 | 23 | 1015.1 |
| 20260506190844 | 79 | 223 | 2.0 | 12.0 | 0.00 | 0.00 | 0.00 | 23 | 1015.0 |
| 20260506190317 | 80 | 167 | 5.0 | 12.0 | 0.00 | 0.00 | 0.00 | 25 | 1015.0 |
| 20260506185827 | 79 | 168 | 6.0 | 9.0 | 0.00 | 0.00 | 0.00 | 25 | 1015.1 |
| 20260506185317 | 78 | 225 | 2.0 | 7.0 | 0.00 | 0.00 | 0.00 | 25 | 1015.2 |
| 20260506184830 | 77 | 306 | 2.0 | 7.0 | 0.00 | 0.00 | 0.00 | 25 | 1015.3 |
| 20260506184321 | 77 | 208 | 2.0 | 7.0 | 0.00 | 0.00 | 0.00 | 26 | 1015.4 |
| 20260506183854 | 77 | 263 | 4.0 | 9.0 | 0.00 | 0.00 | 0.00 | 26 | 1015.5 |
| 20260506183324 | 76 | 286 | 6.0 | 10.0 | 0.00 | 0.00 | 0.00 | 27 | 1015.5 |
| 20260506182818 | 76 | 216 | 6.0 | 10.0 | 0.00 | 0.00 | 0.00 | 27 | 1015.6 |
| 20260506182330 | 76 | 150 | 2.0 | 10.0 | 0.00 | 0.00 | 0.00 | 27 | 1015.6 |
| 20260506181826 | 76 | 254 | 6.0 | 11.0 | 0.00 | 0.00 | 0.00 | 28 | 1015.6 |
| 20260506181315 | 76 | 248 | 6.0 | 11.0 | 0.00 | 0.00 | 0.00 | 28 | 1015.6 |
| 20260506180828 | 75 | 276 | 8.0 | 11.0 | 0.00 | 0.00 | 0.00 | 28 | 1015.6 |
| 20260506180318 | 76 | 249 | 8.0 | 13.0 | 0.00 | 0.00 | 0.00 | 28 | 1015.6 |
| 20260506175828 | 75 | 259 | 8.0 | 12.0 | 0.00 | 0.00 | 0.00 | 28 | 1015.6 |
| 20260506175319 | 75 | 311 | 8.0 | 12.0 | 0.00 | 0.00 | 0.00 | 29 | 1015.6 |
| 20260506174831 | 74 | 270 | 5.0 | 13.0 | 0.00 | 0.00 | 0.00 | 30 | 1015.6 |
| 20260506174320 | 74 | 275 | 10.0 | 14.0 | 0.00 | 0.00 | 0.00 | 30 | 1015.6 |
| 20260506173851 | 73 | 276 | 11.0 | 14.0 | 0.00 | 0.00 | 0.00 | 31 | 1015.6 |
| 20260506173321 | 73 | 261 | 10.0 | 14.0 | 0.00 | 0.00 | 0.00 | 31 | 1015.6 |
| 20260506172817 | 73 | 293 | 10.0 | 15.0 | 0.00 | 0.00 | 0.00 | 32 | 1015.6 |
| 20260506172329 | 72 | 248 | 12.0 | 16.0 | 0.00 | 0.00 | 0.00 | 32 | 1015.6 |
| 20260506171822 | 72 | 253 | 10.0 | 16.0 | 0.00 | 0.00 | 0.00 | 33 | 1015.6 |
| 20260506171353 | 72 | 265 | 10.0 | 14.0 | 0.00 | 0.00 | 0.00 | 33 | 1015.7 |
| 20260506170825 | 72 | 313 | 9.0 | 14.0 | 0.00 | 0.00 | 0.00 | 34 | 1015.6 |
| 20260506170316 | 71 | 252 | 10.0 | 14.0 | 0.00 | 0.00 | 0.00 | 34 | 1015.6 |
| 20260506165826 | 71 | 275 | 10.0 | 13.0 | 0.00 | 0.00 | 0.00 | 34 | 1015.6 |
| 20260506165318 | 71 | 273 | 10.0 | 16.0 | 0.00 | 0.00 | 0.00 | 34 | 1015.6 |
| 20260506164830 | 70 | 269 | 12.0 | 16.0 | 0.00 | 0.00 | 0.00 | 35 | 1015.6 |
| 20260506164325 | 70 | 275 | 13.0 | 18.0 | 0.00 | 0.00 | 0.00 | 35 | 1015.6 |
| 20260506163836 | 70 | 252 | 12.0 | 18.0 | 0.00 | 0.00 | 0.00 | 36 | 1015.6 |
| 20260506163325 | 70 | 249 | 12.0 | 21.0 | 0.00 | 0.00 | 0.00 | 36 | 1015.6 |
| 20260506162817 | 69 | 244 | 12.0 | 21.0 | 0.00 | 0.00 | 0.00 | 37 | 1015.5 |
| 20260506162328 | 69 | 269 | 15.0 | 21.0 | 0.00 | 0.00 | 0.00 | 38 | 1015.4 |
| 20260506161819 | 69 | 255 | 15.0 | 19.0 | 0.00 | 0.00 | 0.00 | 38 | 1015.4 |
| 20260506161328 | 68 | 275 | 15.0 | 21.0 | 0.00 | 0.00 | 0.00 | 39 | 1015.4 |
| 20260506160820 | 68 | 253 | 15.0 | 21.0 | 0.00 | 0.00 | 0.00 | 39 | 1015.4 |
| 20260506160331 | 68 | 281 | 14.0 | 21.0 | 0.00 | 0.00 | 0.00 | 39 | 1015.4 |
| 20260506155821 | 68 | 280 | 14.0 | 21.0 | 0.00 | 0.00 | 0.00 | 39 | 1015.4 |
| 20260506155315 | 67 | 268 | 15.0 | 20.0 | 0.00 | 0.00 | 0.00 | 39 | 1015.3 |
| 20260506154848 | 67 | 290 | 15.0 | 24.0 | 0.00 | 0.00 | 0.00 | 40 | 1015.2 |
| 20260506154314 | 66 | 288 | 16.0 | 21.0 | 0.00 | 0.00 | 0.00 | 40 | 1015.2 |
| 20260506153826 | 66 | 294 | 16.0 | 22.0 | 0.00 | 0.00 | 0.00 | 41 | 1015.2 |
| 20260506153337 | 66 | 286 | 18.0 | 23.0 | 0.00 | 0.00 | 0.00 | 40 | 1015.3 |
| 20260506152828 | 66 | 290 | 16.0 | 21.0 | 0.00 | 0.00 | 0.00 | 41 | 1015.3 |
| 20260506152320 | 66 | 304 | 16.0 | 21.0 | 0.00 | 0.00 | 0.00 | 41 | 1015.3 |
| 20260506151813 | 65 | 276 | 14.0 | 20.0 | 0.00 | 0.00 | 0.00 | 41 | 1015.2 |
| 20260506151344 | 65 | 257 | 16.0 | 20.0 | 0.00 | 0.00 | 0.00 | 42 | 1015.2 |
| 20260506150835 | 65 | 285 | 15.0 | 20.0 | 0.00 | 0.00 | 0.00 | 43 | 1015.2 |
| 20260506150326 | 64 | 266 | 16.0 | 21.0 | 0.00 | 0.00 | 0.00 | 43 | 1015.2 |
| 20260506145840 | 64 | 261 | 16.0 | 21.0 | 0.00 | 0.00 | 0.00 | 44 | 1015.2 |
| 20260506145331 | 64 | 291 | 16.0 | 19.0 | 0.00 | 0.00 | 0.00 | 44 | 1015.2 |
| 20260506144824 | 63 | 289 | 15.0 | 20.0 | 0.00 | 0.00 | 0.00 | 45 | 1015.2 |
| 20260506144332 | 63 | 291 | 16.0 | 20.0 | 0.00 | 0.00 | 0.00 | 45 | 1015.1 |
| 20260506143825 | 63 | 281 | 14.0 | 18.0 | 0.00 | 0.00 | 0.00 | 46 | 1015.1 |
| 20260506143314 | 62 | 291 | 15.0 | 18.0 | 0.00 | 0.00 | 0.00 | 46 | 1015.0 |
| 20260506142826 | 62 | 302 | 14.0 | 19.0 | 0.00 | 0.00 | 0.00 | 46 | 1015.0 |
| 20260506142317 | 62 | 281 | 14.0 | 19.0 | 0.00 | 0.00 | 0.00 | 46 | 1015.0 |
| 20260506141831 | 62 | 265 | 15.0 | 20.0 | 0.00 | 0.00 | 0.00 | 46 | 1014.9 |
| 20260506141322 | 61 | 270 | 16.0 | 18.0 | 0.00 | 0.00 | 0.00 | 48 | 1014.8 |
| 20260506140819 | 61 | 265 | 11.0 | 15.0 | 0.00 | 0.00 | 0.00 | 49 | 1014.8 |
| 20260506140331 | 60 | 304 | 11.0 | 15.0 | 0.00 | 0.00 | 0.00 | 49 | 1014.9 |
| 20260506135821 | 60 | 297 | 10.0 | 14.0 | 0.00 | 0.00 | 0.00 | 50 | 1014.8 |
| 20260506135313 | 59 | 311 | 10.0 | 15.0 | 0.00 | 0.00 | 0.00 | 50 | 1014.7 |
| 20260506134828 | 59 | 304 | 13.0 | 16.0 | 0.00 | 0.00 | 0.00 | 51 | 1014.7 |
| 20260506134319 | 58 | 304 | 12.0 | 17.0 | 0.00 | 0.00 | 0.00 | 52 | 1014.5 |
| 20260506133832 | 58 | 292 | 13.0 | 17.0 | 0.00 | 0.00 | 0.00 | 53 | 1014.5 |
| 20260506133344 | 57 | 280 | 11.0 | 14.0 | 0.00 | 0.00 | 0.00 | 54 | 1014.4 |
| 20260506132820 | 57 | 297 | 12.0 | 16.0 | 0.00 | 0.00 | 0.00 | 54 | 1014.4 |
| 20260506132332 | 57 | 298 | 12.0 | 16.0 | 0.00 | 0.00 | 0.00 | 55 | 1014.4 |
| 20260506131825 | 56 | 302 | 11.0 | 14.0 | 0.00 | 0.00 | 0.00 | 56 | 1014.4 |
| 20260506131316 | 56 | 306 | 11.0 | 13.0 | 0.00 | 0.00 | 0.00 | 56 | 1014.3 |
| 20260506130848 | 56 | 311 | 10.0 | 12.0 | 0.00 | 0.00 | 0.00 | 57 | 1014.3 |
| 20260506130317 | 55 | 281 | 9.0 | 12.0 | 0.00 | 0.00 | 0.00 | 57 | 1014.2 |
| 20260506125827 | 55 | 308 | 11.0 | 12.0 | 0.00 | 0.00 | 0.00 | 57 | 1014.2 |
| 20260506125318 | 55 | 298 | 10.0 | 13.0 | 0.00 | 0.00 | 0.00 | 57 | 1014.1 |
| 20260506124830 | 56 | 311 | 10.0 | 13.0 | 0.00 | 0.00 | 0.00 | 57 | 1014.2 |
| 20260506124326 | 55 | 298 | 10.0 | 13.0 | 0.00 | 0.00 | 0.00 | 57 | 1014.1 |
| 20260506123839 | 55 | 309 | 10.0 | 13.0 | 0.00 | 0.00 | 0.00 | 58 | 1014.1 |
| 20260506123330 | 56 | 312 | 10.0 | 13.0 | 0.00 | 0.00 | 0.00 | 56 | 1014.0 |
| 20260506122824 | 56 | 304 | 11.0 | 16.0 | 0.00 | 0.00 | 0.00 | 56 | 1014.0 |
| 20260506122336 | 56 | 299 | 13.0 | 16.0 | 0.00 | 0.00 | 0.00 | 57 | 1014.0 |
| 20260506121828 | 56 | 277 | 12.0 | 16.0 | 0.00 | 0.00 | 0.00 | 58 | 1013.9 |
| 20260506121339 | 56 | 276 | 13.0 | 16.0 | 0.00 | 0.00 | 0.00 | 58 | 1013.9 |
| 20260506120850 | 56 | 273 | 13.0 | 17.0 | 0.00 | 0.00 | 0.00 | 58 | 1013.8 |
| 20260506120319 | 56 | 274 | 13.0 | 17.0 | 0.00 | 0.00 | 0.00 | 58 | 1013.7 |
| 20260506115848 | 57 | 290 | 13.0 | 18.0 | 0.00 | 0.00 | 0.00 | 57 | 1013.8 |
| 20260506115318 | 57 | 290 | 14.0 | 18.0 | 0.00 | 0.00 | 0.00 | 57 | 1013.7 |
| 20260506114830 | 57 | 273 | 15.0 | 18.0 | 0.00 | 0.00 | 0.00 | 57 | 1013.7 |
| 20260506114326 | 57 | 275 | 14.0 | 18.0 | 0.00 | 0.00 | 0.00 | 57 | 1013.6 |
| 20260506113818 | 57 | 263 | 12.0 | 16.0 | 0.00 | 0.00 | 0.00 | 57 | 1013.7 |
| 20260506113330 | 57 | 268 | 12.0 | 16.0 | 0.00 | 0.00 | 0.00 | 57 | 1013.7 |
| 20260506112843 | 57 | 267 | 13.0 | 17.0 | 0.00 | 0.00 | 0.00 | 56 | 1013.6 |
| 20260506112334 | 57 | 282 | 14.0 | 17.0 | 0.00 | 0.00 | 0.00 | 56 | 1013.6 |
| 20260506111825 | 57 | 302 | 13.0 | 17.0 | 0.00 | 0.00 | 0.00 | 56 | 1013.6 |
| 20260506111336 | 57 | 294 | 13.0 | 17.0 | 0.00 | 0.00 | 0.00 | 57 | 1013.6 |
| 20260506110829 | 57 | 277 | 12.0 | 16.0 | 0.00 | 0.00 | 0.00 | 57 | 1013.6 |
| 20260506110321 | 57 | 271 | 11.0 | 15.0 | 0.00 | 0.00 | 0.00 | 57 | 1013.6 |
| 20260506105831 | 57 | 275 | 13.0 | 16.0 | 0.00 | 0.00 | 0.00 | 57 | 1013.6 |
| 20260506105327 | 57 | 284 | 12.0 | 16.0 | 0.00 | 0.00 | 0.00 | 57 | 1013.7 |
| 20260506104821 | 57 | 292 | 12.0 | 14.0 | 0.00 | 0.00 | 0.00 | 57 | 1013.6 |
| 20260506104332 | 57 | 294 | 11.0 | 16.0 | 0.00 | 0.00 | 0.00 | 57 | 1013.7 |
| 20260506103825 | 57 | 273 | 12.0 | 17.0 | 0.00 | 0.00 | 0.00 | 57 | 1013.6 |
| 20260506103316 | 57 | 293 | 13.0 | 17.0 | 0.00 | 0.00 | 0.00 | 56 | 1013.6 |
| 20260506102830 | 58 | 277 | 13.0 | 17.0 | 0.00 | 0.00 | 0.00 | 57 | 1013.5 |
| 20260506102322 | 57 | 284 | 13.0 | 17.0 | 0.00 | 0.00 | 0.00 | 57 | 1013.4 |
| 20260506101815 | 57 | 294 | 12.0 | 17.0 | 0.00 | 0.00 | 0.00 | 57 | 1013.4 |
| 20260506101327 | 58 | 290 | 12.0 | 17.0 | 0.00 | 0.00 | 0.00 | 56 | 1013.6 |
| 20260506100825 | 58 | 277 | 11.0 | 16.0 | 0.00 | 0.00 | 0.00 | 56 | 1013.5 |
| 20260506100335 | 58 | 278 | 12.0 | 17.0 | 0.00 | 0.00 | 0.00 | 56 | 1013.4 |
| 20260506095824 | 58 | 262 | 13.0 | 18.0 | 0.00 | 0.00 | 0.00 | 57 | 1013.4 |
| 20260506095316 | 58 | 282 | 13.0 | 20.0 | 0.00 | 0.00 | 0.00 | 56 | 1013.3 |
| 20260506094831 | 58 | 288 | 16.0 | 20.0 | 0.00 | 0.00 | 0.00 | 56 | 1013.4 |
| 20260506094323 | 58 | 279 | 15.0 | 21.0 | 0.00 | 0.00 | 0.00 | 56 | 1013.4 |
| 20260506093815 | 58 | 290 | 17.0 | 21.0 | 0.00 | 0.00 | 0.00 | 57 | 1013.4 |
| 20260506093326 | 58 | 289 | 13.0 | 20.0 | 0.00 | 0.00 | 0.00 | 57 | 1013.5 |
| 20260506092823 | 58 | 276 | 14.0 | 20.0 | 0.00 | 0.00 | 0.00 | 58 | 1013.6 |
| 20260506092315 | 58 | 274 | 13.0 | 17.0 | 0.00 | 0.00 | 0.00 | 59 | 1013.7 |
| 20260506091825 | 58 | 286 | 11.0 | 15.0 | 0.00 | 0.00 | 0.00 | 58 | 1013.8 |
| 20260506091316 | 58 | 298 | 11.0 | 18.0 | 0.00 | 0.00 | 0.00 | 58 | 1013.8 |
| 20260506090830 | 58 | 291 | 12.0 | 18.0 | 0.00 | 0.00 | 0.00 | 58 | 1013.8 |
| 20260506090323 | 58 | 273 | 11.0 | 17.0 | 0.00 | 0.00 | 0.00 | 59 | 1013.9 |
| 20260506085832 | 58 | 285 | 14.0 | 17.0 | 0.00 | 0.00 | 0.00 | 59 | 1013.9 |
| 20260506085324 | 58 | 313 | 13.0 | 18.0 | 0.00 | 0.00 | 0.00 | 59 | 1013.9 |
| 20260506084817 | 58 | 302 | 14.0 | 19.0 | 0.00 | 0.00 | 0.00 | 59 | 1013.9 |
| 20260506084314 | 58 | 310 | 13.0 | 19.0 | 0.00 | 0.00 | 0.00 | 59 | 1013.9 |
| 20260506083847 | 59 | 277 | 14.0 | 20.0 | 0.00 | 0.00 | 0.00 | 59 | 1014.0 |
| 20260506083318 | 59 | 304 | 15.0 | 23.0 | 0.00 | 0.00 | 0.00 | 58 | 1014.1 |
| 20260506082832 | 59 | 296 | 17.0 | 23.0 | 0.00 | 0.00 | 0.00 | 58 | 1014.1 |
| 20260506082324 | 59 | 291 | 15.0 | 21.0 | 0.00 | 0.00 | 0.00 | 58 | 1014.1 |
| 20260506081819 | 59 | 300 | 13.0 | 23.0 | 0.00 | 0.00 | 0.00 | 58 | 1014.1 |
| 20260506081331 | 59 | 294 | 18.0 | 23.0 | 0.00 | 0.00 | 0.00 | 58 | 1014.1 |
| 20260506080823 | 59 | 304 | 16.0 | 21.0 | 0.00 | 0.00 | 0.00 | 58 | 1014.2 |
| 20260506080333 | 59 | 295 | 16.0 | 22.0 | 0.00 | 0.00 | 0.00 | 57 | 1014.2 |
| 20260506073325 | 59 | 306 | 19.0 | 23.0 | 0.00 | 0.00 | 0.00 | 57 | 1014.3 |
| 20260506072817 | 59 | 275 | 15.0 | 23.0 | 0.00 | 0.00 | 0.00 | 57 | 1014.2 |
| 20260506072329 | 59 | 297 | 15.0 | 20.0 | 0.00 | 0.00 | 0.00 | 57 | 1014.1 |
| 20260506071842 | 59 | 307 | 14.0 | 25.0 | 0.00 | 0.00 | 0.00 | 57 | 1014.1 |
| 20260506071332 | 59 | 310 | 17.0 | 25.0 | 0.00 | 0.00 | 0.00 | 57 | 1014.1 |
| 20260506070844 | 59 | 298 | 18.0 | 27.0 | 0.00 | 0.00 | 0.00 | 57 | 1014.0 |
| 20260506070314 | 59 | 286 | 15.0 | 27.0 | 0.00 | 0.00 | 0.00 | 56 | 1013.9 |